Location: *
(34.0486°S, 61.7880°E)
Time: 00:44:54
(UTC+00:00)

Cosmos 1954 Rocket - Pass Details

Date: 01 April 2020
Orbit: 752 x 781 km, 74.0° (Epoch: 06 June)

Event Time Altitude Azimuth Distance (km) Brightness Sun altitude
Rises 15:38:26 0° 195° (SSW) 3,297 7.6 -23.8°
Reaches altitude 10° 15:40:51 10° 193° (SSW) 2,364 6.8 -24.2°
Maximum altitude 15:46:14 74° 107° (ESE) 821 3.9 -25.3°
Enters shadow 15:46:21 74° 95° (E) 822 3.9 -25.4°
